Time,TemperatureF,DewpointF,PressureIn,WindDirection,WindDirectionDegrees,WindSpeedMPH,WindSpeedGustMPH,Humidity,HourlyPrecipIn,Conditions,Clouds,dailyrainin,SolarRadiationWatts/m^2,SoftwareType,DateUTC
2013-07-27 00:02:00,54.9,52.3,-100.00,SW,232,4.0,5.0,91,0.00,,,0.00,0.0,meteohub,2013-07-27 07:02:00,
2013-07-27 00:07:00,54.9,52.3,-100.00,SW,219,3.0,5.0,91,0.00,,,0.00,0.0,meteohub,2013-07-27 07:07:00,
2013-07-27 00:12:00,54.7,52.2,-100.00,SW,234,4.0,6.0,91,0.00,,,0.00,0.0,meteohub,2013-07-27 07:12:00,
2013-07-27 00:18:00,54.7,52.3,-100.00,WSW,237,1.0,6.0,92,0.00,,,0.00,0.0,meteohub,2013-07-27 07:18:00,
2013-07-27 00:24:00,54.5,52.2,-100.00,WSW,237,1.0,6.0,92,0.00,,,0.00,0.0,meteohub,2013-07-27 07:24:00,
2013-07-27 00:31:00,54.5,52.2,-100.00,SSW,198,0.0,6.0,92,0.00,,,0.00,0.0,meteohub,2013-07-27 07:31:00,
2013-07-27 00:37:00,54.3,52.0,-100.00,West,266,2.0,6.0,92,0.00,,,0.00,0.0,meteohub,2013-07-27 07:37:00,
2013-07-27 00:43:00,54.3,52.3,-100.00,SW,221,5.0,9.0,93,0.00,,,0.00,0.0,meteohub,2013-07-27 07:43:00,
2013-07-27 00:49:00,54.3,52.0,-100.00,SW,218,4.0,7.0,92,0.00,,,0.00,0.0,meteohub,2013-07-27 07:49:00,
2013-07-27 00:55:00,54.1,52.2,-100.00,SW,217,0.0,7.0,93,0.00,,,0.00,0.0,meteohub,2013-07-27 07:55:00,
2013-07-27 01:01:00,54.1,52.2,-100.00,SW,217,0.0,6.0,93,0.00,,,0.00,0.0,meteohub,2013-07-27 08:01:00,
2013-07-27 01:07:00,54.3,52.3,-100.00,SW,217,0.0,6.0,93,0.00,,,0.00,0.0,meteohub,2013-07-27 08:07:00,
2013-07-27 01:12:00,54.1,51.8,-100.00,SW,217,2.0,4.0,92,0.00,,,0.00,0.0,meteohub,2013-07-27 08:12:00,
2013-07-27 01:18:00,54.1,51.8,-100.00,SW,219,2.0,4.0,92,0.00,,,0.00,0.0,meteohub,2013-07-27 08:18:00,
2013-07-27 01:24:00,54.1,51.8,-100.00,SW,215,0.0,2.0,92,0.00,,,0.00,0.0,meteohub,2013-07-27 08:24:00,
2013-07-27 01:30:00,54.1,51.8,-100.00,SW,215,0.0,5.0,92,0.00,,,0.00,0.0,meteohub,2013-07-27 08:30:00,
2013-07-27 01:36:00,54.1,51.8,-100.00,SW,215,0.0,5.0,92,0.00,,,0.00,0.0,meteohub,2013-07-27 08:36:00,
2013-07-27 01:42:00,54.1,51.8,-100.00,SW,215,0.0,5.0,92,0.00,,,0.00,0.0,meteohub,2013-07-27 08:42:00,
2013-07-27 01:47:00,54.1,51.8,-100.00,SW,215,0.0,3.0,92,0.00,,,0.00,0.0,meteohub,2013-07-27 08:47:00,
2013-07-27 01:52:00,54.1,51.8,-100.00,SW,215,1.0,3.0,92,0.00,,,0.00,0.0,meteohub,2013-07-27 08:52:00,
2013-07-27 01:57:00,54.0,51.6,-100.00,SW,218,0.0,3.0,92,0.00,,,0.00,0.0,meteohub,2013-07-27 08:57:00,
2013-07-27 02:02:00,54.0,51.6,-100.00,SW,218,0.0,3.0,92,0.00,,,0.00,0.0,meteohub,2013-07-27 09:02:00,
2013-07-27 02:07:00,54.0,51.6,-100.00,SW,218,0.0,3.0,92,0.00,,,0.00,0.0,meteohub,2013-07-27 09:07:00,
2013-07-27 02:12:00,54.0,51.6,-100.00,SW,218,0.0,3.0,92,0.00,,,0.00,0.0,meteohub,2013-07-27 09:12:00,
2013-07-27 02:17:00,54.0,51.6,-100.00,SE,136,2.0,4.0,92,0.00,,,0.00,0.0,meteohub,2013-07-27 09:17:00,
2013-07-27 02:22:00,54.1,51.8,-100.00,ESE,116,0.0,4.0,92,0.00,,,0.00,0.0,meteohub,2013-07-27 09:22:00,
2013-07-27 02:27:00,54.1,51.8,-100.00,ESE,103,0.0,4.0,92,0.00,,,0.00,0.0,meteohub,2013-07-27 09:27:00,
2013-07-27 02:34:00,54.0,51.4,-100.00,ESE,103,0.0,4.0,91,0.00,,,0.00,0.0,meteohub,2013-07-27 09:34:00,
2013-07-27 02:40:00,53.8,51.3,-100.00,East,101,0.0,4.0,91,0.00,,,0.00,0.0,meteohub,2013-07-27 09:40:00,
2013-07-27 02:46:00,53.8,51.4,-100.00,East,101,0.0,2.0,92,0.00,,,0.00,0.0,meteohub,2013-07-27 09:46:00,
2013-07-27 02:52:00,53.8,51.4,-100.00,East,101,0.0,2.0,92,0.00,,,0.00,0.0,meteohub,2013-07-27 09:52:00,
2013-07-27 02:57:00,53.8,51.4,-100.00,East,101,0.0,3.0,92,0.00,,,0.00,0.0,meteohub,2013-07-27 09:57:00,
2013-07-27 03:02:00,54.0,51.6,-100.00,East,101,0.0,3.0,92,0.00,,,0.00,0.0,meteohub,2013-07-27 10:02:00,
2013-07-27 03:09:00,54.0,51.6,-100.00,East,101,0.0,2.0,92,0.00,,,0.00,0.0,meteohub,2013-07-27 10:09:00,
2013-07-27 03:15:00,54.1,51.8,-100.00,East,101,0.0,2.0,92,0.00,,,0.00,0.0,meteohub,2013-07-27 10:15:00,
2013-07-27 03:21:00,54.0,51.6,-100.00,East,101,0.0,2.0,92,0.00,,,0.00,0.0,meteohub,2013-07-27 10:21:00,
2013-07-27 03:27:00,54.0,51.6,-100.00,ESE,116,0.0,4.0,92,0.00,,,0.00,0.0,meteohub,2013-07-27 10:27:00,
2013-07-27 03:32:00,54.0,51.6,-100.00,ESE,116,0.0,4.0,92,0.00,,,0.00,0.0,meteohub,2013-07-27 10:32:00,
2013-07-27 03:37:00,54.0,51.6,-100.00,ESE,116,0.0,4.0,92,0.00,,,0.00,0.0,meteohub,2013-07-27 10:37:00,
2013-07-27 03:44:00,54.0,51.6,-100.00,ESE,116,0.0,4.0,92,0.00,,,0.00,0.0,meteohub,2013-07-27 10:44:00,
2013-07-27 03:50:00,54.0,51.6,-100.00,ESE,116,0.0,1.0,92,0.00,,,0.00,0.0,meteohub,2013-07-27 10:50:00,
2013-07-27 03:56:00,53.8,51.4,-100.00,ESE,116,0.0,4.0,92,0.00,,,0.00,0.0,meteohub,2013-07-27 10:56:00,
2013-07-27 04:02:00,53.8,51.4,-100.00,ESE,116,1.0,4.0,92,0.00,,,0.00,0.0,meteohub,2013-07-27 11:02:00,
2013-07-27 04:07:00,53.8,51.4,-100.00,ESE,116,1.0,4.0,92,0.00,,,0.00,0.0,meteohub,2013-07-27 11:07:00,
2013-07-27 04:12:00,53.8,51.4,-100.00,ESE,116,2.0,4.0,92,0.00,,,0.00,0.0,meteohub,2013-07-27 11:12:00,
2013-07-27 04:17:00,53.8,51.4,-100.00,ESE,116,0.0,4.0,92,0.00,,,0.00,0.0,meteohub,2013-07-27 11:17:00,
2013-07-27 04:22:00,53.8,51.4,-100.00,ESE,116,0.0,4.0,92,0.00,,,0.00,0.0,meteohub,2013-07-27 11:22:00,
2013-07-27 04:27:00,53.8,51.4,-100.00,ESE,116,0.0,4.0,92,0.00,,,0.00,0.0,meteohub,2013-07-27 11:27:00,
2013-07-27 04:33:00,53.8,51.4,-100.00,ESE,116,0.0,4.0,92,0.00,,,0.00,0.0,meteohub,2013-07-27 11:33:00,
2013-07-27 04:39:00,53.8,51.4,-100.00,ESE,116,0.0,1.0,92,0.00,,,0.00,0.0,meteohub,2013-07-27 11:39:00,
2013-07-27 04:45:00,53.6,51.3,-100.00,ESE,116,0.0,1.0,92,0.00,,,0.00,0.0,meteohub,2013-07-27 11:45:00,
2013-07-27 04:52:00,53.6,51.3,-100.00,ESE,116,0.0,2.0,92,0.00,,,0.00,0.0,meteohub,2013-07-27 11:52:00,
2013-07-27 04:57:00,53.4,51.1,-100.00,ESE,116,0.0,2.0,92,0.00,,,0.00,0.0,meteohub,2013-07-27 11:57:00,
2013-07-27 05:02:00,53.4,51.1,-100.00,ESE,116,0.0,2.0,92,0.00,,,0.00,0.0,meteohub,2013-07-27 12:02:00,
2013-07-27 05:08:00,53.4,51.1,-100.00,ESE,116,0.0,2.0,92,0.00,,,0.00,0.0,meteohub,2013-07-27 12:08:00,
2013-07-27 05:14:00,53.4,51.1,-100.00,ESE,117,1.0,1.0,92,0.00,,,0.00,0.0,meteohub,2013-07-27 12:14:00,
2013-07-27 05:20:00,53.4,51.1,-100.00,ESE,116,0.0,1.0,92,0.00,,,0.00,0.0,meteohub,2013-07-27 12:20:00,
2013-07-27 05:27:00,53.4,51.1,-100.00,ESE,116,0.0,1.0,92,0.00,,,0.00,0.0,meteohub,2013-07-27 12:27:00,
2013-07-27 05:33:00,53.4,51.1,-100.00,ESE,116,0.0,2.0,92,0.00,,,0.00,0.0,meteohub,2013-07-27 12:33:00,
2013-07-27 05:39:00,53.2,50.9,-100.00,ESE,116,0.0,2.0,92,0.00,,,0.00,0.0,meteohub,2013-07-27 12:39:00,
2013-07-27 05:45:00,53.2,51.3,-100.00,ESE,116,0.0,2.0,93,0.00,,,0.00,0.0,meteohub,2013-07-27 12:45:00,
2013-07-27 05:51:00,53.2,51.3,-100.00,ESE,116,0.0,2.0,93,0.00,,,0.00,0.0,meteohub,2013-07-27 12:51:00,
2013-07-27 05:57:00,53.2,51.3,-100.00,ESE,116,0.0,2.0,93,0.00,,,0.00,0.0,meteohub,2013-07-27 12:57:00,
2013-07-27 06:02:00,53.2,51.3,-100.00,ESE,116,0.0,1.0,93,0.00,,,0.00,0.0,meteohub,2013-07-27 13:02:00,
2013-07-27 06:08:00,53.4,51.4,-100.00,ESE,116,0.0,1.0,93,0.00,,,0.00,0.0,meteohub,2013-07-27 13:08:00,
2013-07-27 06:14:00,53.2,51.3,-100.00,ESE,116,0.0,1.0,93,0.00,,,0.00,0.0,meteohub,2013-07-27 13:14:00,
2013-07-27 06:20:00,53.2,51.3,-100.00,ESE,116,4.0,4.0,93,0.00,,,0.00,0.0,meteohub,2013-07-27 13:20:00,
2013-07-27 06:27:00,53.1,51.1,-100.00,ESE,116,0.0,1.0,93,0.00,,,0.00,0.0,meteohub,2013-07-27 13:27:00,
2013-07-27 06:32:00,53.1,51.1,-100.00,ESE,116,0.0,1.0,93,0.00,,,0.00,5.0,meteohub,2013-07-27 13:32:00,
2013-07-27 06:37:00,53.1,51.1,-100.00,ESE,116,0.0,4.0,93,0.00,,,0.00,7.0,meteohub,2013-07-27 13:37:00,
2013-07-27 06:43:00,52.9,50.9,-100.00,ESE,116,0.0,4.0,93,0.00,,,0.00,11.0,meteohub,2013-07-27 13:43:00,
2013-07-27 06:50:00,52.9,50.9,-100.00,ESE,116,0.0,4.0,93,0.00,,,0.00,11.0,meteohub,2013-07-27 13:50:00,
2013-07-27 06:56:00,52.9,51.3,-100.00,ESE,116,2.0,2.0,94,0.00,,,0.00,19.0,meteohub,2013-07-27 13:56:00,
2013-07-27 07:02:00,52.9,51.3,-100.00,ESE,116,0.0,1.0,94,0.00,,,0.00,23.0,meteohub,2013-07-27 14:02:00,
2013-07-27 07:07:00,53.1,51.4,-100.00,ESE,116,0.0,1.0,94,0.00,,,0.00,28.0,meteohub,2013-07-27 14:07:00,
2013-07-27 07:12:00,53.1,51.1,-100.00,ESE,116,0.0,1.0,93,0.00,,,0.00,32.0,meteohub,2013-07-27 14:12:00,
2013-07-27 07:17:00,53.1,51.1,-100.00,ESE,116,0.0,2.0,93,0.00,,,0.00,39.0,meteohub,2013-07-27 14:17:00,
2013-07-27 07:23:00,53.1,51.1,-100.00,ESE,116,0.0,2.0,93,0.00,,,0.00,47.0,meteohub,2013-07-27 14:23:00,
2013-07-27 07:29:00,53.1,51.1,-100.00,ESE,116,0.0,3.0,93,0.00,,,0.00,54.0,meteohub,2013-07-27 14:29:00,
2013-07-27 07:35:00,53.1,51.1,-100.00,ESE,117,0.0,3.0,93,0.00,,,0.00,58.0,meteohub,2013-07-27 14:35:00,
2013-07-27 07:41:00,53.1,50.7,-100.00,ESE,117,0.0,3.0,92,0.00,,,0.00,74.0,meteohub,2013-07-27 14:41:00,
2013-07-27 07:47:00,53.2,50.9,-100.00,ESE,117,0.0,5.0,92,0.00,,,0.00,91.0,meteohub,2013-07-27 14:47:00,
2013-07-27 07:52:00,53.4,51.1,-100.00,ESE,117,0.0,5.0,92,0.00,,,0.00,102.0,meteohub,2013-07-27 14:52:00,
2013-07-27 07:57:00,53.8,51.4,-100.00,ESE,117,0.0,5.0,92,0.00,,,0.00,97.0,meteohub,2013-07-27 14:57:00,
2013-07-27 08:02:00,53.8,51.4,-100.00,ESE,117,0.0,1.0,92,0.00,,,0.00,88.0,meteohub,2013-07-27 15:02:00,
2013-07-27 08:07:00,53.8,51.3,-100.00,ESE,117,1.0,1.0,91,0.00,,,0.00,95.0,meteohub,2013-07-27 15:07:00,
2013-07-27 08:12:00,54.0,51.4,-100.00,ESE,117,0.0,1.0,91,0.00,,,0.00,93.0,meteohub,2013-07-27 15:12:00,
2013-07-27 08:17:00,54.1,51.6,-100.00,ESE,117,0.0,2.0,91,0.00,,,0.00,105.0,meteohub,2013-07-27 15:17:00,
2013-07-27 08:22:00,54.1,51.6,-100.00,ESE,117,0.0,2.0,91,0.00,,,0.00,113.0,meteohub,2013-07-27 15:22:00,
2013-07-27 08:27:00,54.3,51.8,-100.00,ESE,117,0.0,2.0,91,0.00,,,0.00,123.0,meteohub,2013-07-27 15:27:00,
2013-07-27 08:32:00,54.3,51.8,-100.00,ESE,117,0.0,4.0,91,0.00,,,0.00,142.0,meteohub,2013-07-27 15:32:00,
2013-07-27 08:37:00,54.9,52.3,-100.00,ESE,117,0.0,4.0,91,0.00,,,0.00,144.0,meteohub,2013-07-27 15:37:00,
2013-07-27 08:42:00,55.0,52.2,-100.00,ESE,117,0.0,4.0,90,0.00,,,0.00,158.0,meteohub,2013-07-27 15:42:00,
2013-07-27 08:47:00,55.2,52.0,-100.00,ESE,117,0.0,1.0,89,0.00,,,0.00,155.0,meteohub,2013-07-27 15:47:00,
2013-07-27 08:52:00,55.6,52.7,-100.00,ESE,117,0.0,1.0,90,0.00,,,0.00,139.0,meteohub,2013-07-27 15:52:00,
2013-07-27 08:58:00,55.8,52.5,-100.00,ESE,117,0.0,2.0,89,0.00,,,0.00,148.0,meteohub,2013-07-27 15:58:00,
2013-07-27 09:05:00,55.8,52.5,-100.00,ESE,117,0.0,2.0,89,0.00,,,0.00,158.0,meteohub,2013-07-27 16:05:00,
2013-07-27 09:11:00,55.9,52.7,-100.00,ESE,117,0.0,2.0,89,0.00,,,0.00,167.0,meteohub,2013-07-27 16:11:00,
2013-07-27 09:17:00,56.1,52.9,-100.00,ESE,117,0.0,2.0,89,0.00,,,0.00,174.0,meteohub,2013-07-27 16:17:00,
2013-07-27 09:23:00,56.5,52.9,-100.00,ESE,117,0.0,2.0,88,0.00,,,0.00,197.0,meteohub,2013-07-27 16:23:00,
2013-07-27 09:30:00,56.7,53.1,-100.00,ESE,117,0.0,2.0,88,0.00,,,0.00,204.0,meteohub,2013-07-27 16:30:00,
2013-07-27 09:36:00,56.7,53.1,-100.00,ESE,117,0.0,2.0,88,0.00,,,0.00,204.0,meteohub,2013-07-27 16:36:00,
2013-07-27 09:42:00,56.8,53.2,-100.00,ESE,117,0.0,2.0,88,0.00,,,0.00,237.0,meteohub,2013-07-27 16:42:00,
2013-07-27 09:47:00,57.2,53.6,-100.00,ESE,117,1.0,2.0,88,0.00,,,0.00,236.0,meteohub,2013-07-27 16:47:00,
2013-07-27 09:52:00,57.6,53.8,-100.00,ESE,117,0.0,2.0,87,0.00,,,0.00,243.0,meteohub,2013-07-27 16:52:00,
2013-07-27 09:58:00,57.6,53.4,-100.00,ESE,117,0.0,2.0,86,0.00,,,0.00,295.0,meteohub,2013-07-27 16:58:00,
2013-07-27 10:05:00,57.7,53.6,-100.00,SSW,200,0.0,2.0,86,0.00,,,0.00,290.0,meteohub,2013-07-27 17:05:00,
2013-07-27 10:11:00,57.9,53.8,-100.00,SSW,194,0.0,2.0,86,0.00,,,0.00,301.0,meteohub,2013-07-27 17:11:00,
2013-07-27 10:17:00,58.3,53.8,-100.00,WSW,237,1.0,5.0,85,0.00,,,0.00,359.0,meteohub,2013-07-27 17:17:00,
2013-07-27 10:22:00,58.3,53.8,-100.00,SW,227,0.0,5.0,85,0.00,,,0.00,461.0,meteohub,2013-07-27 17:22:00,
2013-07-27 10:28:00,58.6,54.1,-100.00,WSW,240,0.0,5.0,85,0.00,,,0.00,429.0,meteohub,2013-07-27 17:28:00,
2013-07-27 10:34:00,59.2,54.3,-100.00,SW,230,6.0,8.0,84,0.00,,,0.00,436.0,meteohub,2013-07-27 17:34:00,
2013-07-27 10:40:00,59.4,54.5,-100.00,South,180,3.0,8.0,84,0.00,,,0.00,1013.0,meteohub,2013-07-27 17:40:00,
2013-07-27 10:46:00,59.7,54.1,-100.00,SW,233,6.0,8.0,82,0.00,,,0.00,455.0,meteohub,2013-07-27 17:46:00,
2013-07-27 10:52:00,59.2,53.6,-100.00,SW,231,1.0,8.0,82,0.00,,,0.00,436.0,meteohub,2013-07-27 17:52:00,
2013-07-27 10:57:00,59.4,54.1,-100.00,SW,230,7.0,8.0,83,0.00,,,0.00,520.0,meteohub,2013-07-27 17:57:00,
2013-07-27 11:02:00,60.1,54.9,-100.00,SW,225,0.0,8.0,83,0.00,,,0.00,967.0,meteohub,2013-07-27 18:02:00,
2013-07-27 11:07:00,61.2,55.6,-100.00,SSW,194,0.0,8.0,82,0.00,,,0.00,775.0,meteohub,2013-07-27 18:07:00,
2013-07-27 11:13:00,61.3,54.9,-100.00,West,261,5.0,8.0,79,0.00,,,0.00,814.0,meteohub,2013-07-27 18:13:00,
2013-07-27 11:19:00,61.5,55.2,-100.00,WSW,238,6.0,8.0,80,0.00,,,0.00,812.0,meteohub,2013-07-27 18:19:00,
2013-07-27 11:26:00,61.3,54.9,-100.00,SW,233,2.0,8.0,79,0.00,,,0.00,816.0,meteohub,2013-07-27 18:26:00,
2013-07-27 11:32:00,62.2,55.6,-100.00,SW,218,0.0,8.0,79,0.00,,,0.00,824.0,meteohub,2013-07-27 18:32:00,
2013-07-27 11:38:00,62.6,55.6,-100.00,SW,234,4.0,7.0,78,0.00,,,0.00,835.0,meteohub,2013-07-27 18:38:00,
2013-07-27 11:44:00,63.1,56.1,-100.00,SW,229,1.0,7.0,78,0.00,,,0.00,844.0,meteohub,2013-07-27 18:44:00,
2013-07-27 11:50:00,63.9,56.1,-100.00,SW,230,0.0,7.0,76,0.00,,,0.00,854.0,meteohub,2013-07-27 18:50:00,
2013-07-27 11:57:00,64.8,57.0,-100.00,SW,217,3.0,9.0,76,0.00,,,0.00,863.0,meteohub,2013-07-27 18:57:00,
2013-07-27 12:02:00,65.3,57.2,-100.00,SW,222,4.0,9.0,75,0.00,,,0.00,872.0,meteohub,2013-07-27 19:02:00,
2013-07-27 12:07:00,65.8,57.0,-100.00,SSW,209,1.0,9.0,73,0.00,,,0.00,875.0,meteohub,2013-07-27 19:07:00,
2013-07-27 12:13:00,66.7,57.7,-100.00,SW,223,7.0,9.0,73,0.00,,,0.00,882.0,meteohub,2013-07-27 19:13:00,
2013-07-27 12:19:00,67.6,57.6,-100.00,SW,225,6.0,9.0,70,0.00,,,0.00,891.0,meteohub,2013-07-27 19:19:00,
2013-07-27 12:26:00,67.8,58.1,-100.00,SW,229,2.0,7.0,71,0.00,,,0.00,895.0,meteohub,2013-07-27 19:26:00,
2013-07-27 12:32:00,68.5,57.6,-100.00,SW,230,6.0,7.0,68,0.00,,,0.00,900.0,meteohub,2013-07-27 19:32:00,
2013-07-27 12:37:00,69.1,58.5,-100.00,WSW,242,2.0,7.0,69,0.00,,,0.00,902.0,meteohub,2013-07-27 19:37:00,
2013-07-27 12:42:00,69.3,58.3,-100.00,WSW,243,5.0,8.0,68,0.00,,,0.00,904.0,meteohub,2013-07-27 19:42:00,
2013-07-27 12:48:00,70.0,58.5,-100.00,SW,214,2.0,9.0,67,0.00,,,0.00,907.0,meteohub,2013-07-27 19:48:00,
2013-07-27 12:54:00,70.9,59.0,-100.00,WSW,241,5.0,9.0,66,0.00,,,0.00,911.0,meteohub,2013-07-27 19:54:00,
2013-07-27 13:01:00,71.4,59.5,-100.00,SW,218,10.0,10.0,66,0.00,,,0.00,911.0,meteohub,2013-07-27 20:01:00,
2013-07-27 13:07:00,70.7,58.8,-100.00,WSW,240,7.0,7.0,66,0.00,,,0.00,916.0,meteohub,2013-07-27 20:07:00,
2013-07-27 13:12:00,70.5,59.0,-100.00,SW,229,7.0,10.0,67,0.00,,,0.00,914.0,meteohub,2013-07-27 20:12:00,
2013-07-27 13:17:00,71.1,59.5,-100.00,South,190,2.0,10.0,67,0.00,,,0.00,916.0,meteohub,2013-07-27 20:17:00,
2013-07-27 13:22:00,71.2,58.5,-100.00,SW,225,7.0,9.0,64,0.00,,,0.00,918.0,meteohub,2013-07-27 20:22:00,
2013-07-27 13:27:00,71.1,59.2,-100.00,SSW,213,8.0,9.0,66,0.00,,,0.00,914.0,meteohub,2013-07-27 20:27:00,
2013-07-27 13:33:00,71.2,58.8,-100.00,WSW,246,5.0,11.0,65,0.00,,,0.00,914.0,meteohub,2013-07-27 20:33:00,
2013-07-27 13:39:00,72.0,59.5,-100.00,WSW,244,8.0,11.0,65,0.00,,,0.00,912.0,meteohub,2013-07-27 20:39:00,
2013-07-27 13:46:00,71.4,59.5,-100.00,WSW,257,5.0,11.0,66,0.00,,,0.00,911.0,meteohub,2013-07-27 20:46:00,
2013-07-27 13:52:00,71.4,59.5,-100.00,South,188,2.0,11.0,66,0.00,,,0.00,909.0,meteohub,2013-07-27 20:52:00,
2013-07-27 13:57:00,71.8,59.4,-100.00,SW,225,3.0,11.0,65,0.00,,,0.00,909.0,meteohub,2013-07-27 20:57:00,
2013-07-27 14:02:00,71.4,58.6,-100.00,SW,236,8.0,11.0,64,0.00,,,0.00,905.0,meteohub,2013-07-27 21:02:00,
2013-07-27 14:09:00,71.1,58.6,-100.00,West,264,7.0,11.0,65,0.00,,,0.00,900.0,meteohub,2013-07-27 21:09:00,
2013-07-27 14:15:00,70.9,58.5,-100.00,WSW,242,8.0,11.0,65,0.00,,,0.00,891.0,meteohub,2013-07-27 21:15:00,
2013-07-27 14:21:00,71.6,59.2,-100.00,SSW,202,2.0,12.0,65,0.00,,,0.00,886.0,meteohub,2013-07-27 21:21:00,
2013-07-27 14:27:00,72.0,59.2,-100.00,SSW,195,5.0,12.0,64,0.00,,,0.00,884.0,meteohub,2013-07-27 21:27:00,
2013-07-27 14:32:00,72.0,59.2,-100.00,WSW,258,6.0,12.0,64,0.00,,,0.00,875.0,meteohub,2013-07-27 21:32:00,
2013-07-27 14:38:00,71.4,58.1,-100.00,WSW,237,2.0,12.0,63,0.00,,,0.00,867.0,meteohub,2013-07-27 21:38:00,
2013-07-27 14:44:00,71.6,58.3,-100.00,SW,234,9.0,10.0,63,0.00,,,0.00,861.0,meteohub,2013-07-27 21:44:00,
2013-07-27 14:50:00,71.6,58.3,-100.00,WSW,251,1.0,12.0,63,0.00,,,0.00,853.0,meteohub,2013-07-27 21:50:00,
2013-07-27 14:56:00,72.0,58.3,-100.00,SW,232,8.0,12.0,62,0.00,,,0.00,847.0,meteohub,2013-07-27 21:56:00,
2013-07-27 15:02:00,71.6,58.8,-100.00,WSW,251,2.0,12.0,64,0.00,,,0.00,835.0,meteohub,2013-07-27 22:02:00,
2013-07-27 15:08:00,71.6,58.8,-100.00,SSW,192,3.0,12.0,64,0.00,,,0.00,824.0,meteohub,2013-07-27 22:08:00,
2013-07-27 15:15:00,71.2,57.9,-100.00,WSW,240,2.0,11.0,63,0.00,,,0.00,814.0,meteohub,2013-07-27 22:15:00,
2013-07-27 15:21:00,71.4,57.7,-100.00,SSW,207,11.0,11.0,62,0.00,,,0.00,805.0,meteohub,2013-07-27 22:21:00,
2013-07-27 15:27:00,72.0,58.3,-100.00,SW,219,1.0,10.0,62,0.00,,,0.00,793.0,meteohub,2013-07-27 22:27:00,
2013-07-27 15:32:00,72.1,57.9,-100.00,WSW,246,3.0,12.0,61,0.00,,,0.00,782.0,meteohub,2013-07-27 22:32:00,
2013-07-27 15:37:00,71.6,58.3,-100.00,WSW,253,0.0,12.0,63,0.00,,,0.00,772.0,meteohub,2013-07-27 22:37:00,
2013-07-27 15:42:00,72.1,57.9,-100.00,WSW,240,5.0,10.0,61,0.00,,,0.00,761.0,meteohub,2013-07-27 22:42:00,
2013-07-27 15:47:00,72.1,57.9,-100.00,SSW,211,0.0,10.0,61,0.00,,,0.00,751.0,meteohub,2013-07-27 22:47:00,
2013-07-27 15:54:00,71.8,58.1,-100.00,South,186,0.0,10.0,62,0.00,,,0.00,738.0,meteohub,2013-07-27 22:54:00,
2013-07-27 16:00:00,72.0,58.3,-100.00,SW,233,0.0,10.0,62,0.00,,,0.00,728.0,meteohub,2013-07-27 23:00:00,
2013-07-27 16:06:00,72.3,58.1,-100.00,WSW,242,6.0,10.0,61,0.00,,,0.00,708.0,meteohub,2013-07-27 23:06:00,
2013-07-27 16:12:00,71.8,58.1,-100.00,SW,226,6.0,10.0,62,0.00,,,0.00,696.0,meteohub,2013-07-27 23:12:00,
2013-07-27 16:17:00,71.6,57.9,-100.00,SW,218,6.0,9.0,62,0.00,,,0.00,686.0,meteohub,2013-07-27 23:17:00,
2013-07-27 16:22:00,71.4,57.7,-100.00,West,270,4.0,9.0,62,0.00,,,0.00,671.0,meteohub,2013-07-27 23:22:00,
2013-07-27 16:27:00,71.4,57.7,-100.00,WSW,257,8.0,10.0,62,0.00,,,0.00,657.0,meteohub,2013-07-27 23:27:00,
2013-07-27 16:32:00,71.6,58.8,-100.00,SSW,210,8.0,10.0,64,0.00,,,0.00,647.0,meteohub,2013-07-27 23:32:00,
2013-07-27 16:37:00,71.6,57.9,-100.00,WSW,250,7.0,12.0,62,0.00,,,0.00,631.0,meteohub,2013-07-27 23:37:00,
2013-07-27 16:43:00,72.3,58.6,-100.00,SW,222,6.0,12.0,62,0.00,,,0.00,615.0,meteohub,2013-07-27 23:43:00,
2013-07-27 16:49:00,72.9,58.6,-100.00,SW,232,5.0,10.0,61,0.00,,,0.00,599.0,meteohub,2013-07-27 23:49:00,
2013-07-27 16:56:00,72.7,57.9,-100.00,SW,225,2.0,10.0,60,0.00,,,0.00,580.0,meteohub,2013-07-27 23:56:00,
2013-07-27 17:02:00,72.3,57.7,-100.00,WSW,238,7.0,10.0,60,0.00,,,0.00,564.0,meteohub,2013-07-28 00:02:00,
2013-07-27 17:07:00,71.2,57.0,-100.00,SW,225,6.0,10.0,61,0.00,,,0.00,548.0,meteohub,2013-07-28 00:07:00,
2013-07-27 17:12:00,70.9,57.2,-100.00,SW,236,6.0,10.0,62,0.00,,,0.00,533.0,meteohub,2013-07-28 00:12:00,
2013-07-27 17:17:00,71.1,57.4,-100.00,SSW,205,1.0,10.0,62,0.00,,,0.00,520.0,meteohub,2013-07-28 00:17:00,
2013-07-27 17:22:00,70.7,57.0,-100.00,SW,226,0.0,10.0,62,0.00,,,0.00,504.0,meteohub,2013-07-28 00:22:00,
2013-07-27 17:27:00,70.9,57.2,-100.00,SW,230,3.0,10.0,62,0.00,,,0.00,464.0,meteohub,2013-07-28 00:27:00,
2013-07-27 17:33:00,69.8,56.1,-100.00,SW,216,7.0,9.0,62,0.00,,,0.00,473.0,meteohub,2013-07-28 00:33:00,
2013-07-27 17:39:00,69.4,56.3,-100.00,West,259,2.0,9.0,63,0.00,,,0.00,455.0,meteohub,2013-07-28 00:39:00,
2013-07-27 17:45:00,69.1,56.5,-100.00,SSW,208,3.0,9.0,64,0.00,,,0.00,436.0,meteohub,2013-07-28 00:45:00,
2013-07-27 17:51:00,68.9,55.8,-100.00,WSW,244,7.0,8.0,63,0.00,,,0.00,394.0,meteohub,2013-07-28 00:51:00,
2013-07-27 17:57:00,68.2,55.6,-100.00,SSW,199,0.0,8.0,64,0.00,,,0.00,399.0,meteohub,2013-07-28 00:57:00,
2013-07-27 18:02:00,67.3,55.0,-100.00,WSW,251,1.0,9.0,65,0.00,,,0.00,383.0,meteohub,2013-07-28 01:02:00,
2013-07-27 18:07:00,66.6,54.5,-100.00,SSW,207,1.0,9.0,65,0.00,,,0.00,366.0,meteohub,2013-07-28 01:07:00,
2013-07-27 18:12:00,65.5,54.3,-100.00,SW,223,4.0,11.0,67,0.00,,,0.00,352.0,meteohub,2013-07-28 01:12:00,
2013-07-27 18:17:00,64.8,54.0,-100.00,WSW,239,7.0,11.0,68,0.00,,,0.00,207.0,meteohub,2013-07-28 01:17:00,
2013-07-27 18:22:00,64.0,54.1,-100.00,SW,235,5.0,11.0,70,0.00,,,0.00,70.0,meteohub,2013-07-28 01:22:00,
2013-07-27 18:28:00,63.7,54.1,-100.00,WSW,242,4.0,11.0,71,0.00,,,0.00,35.0,meteohub,2013-07-28 01:28:00,
2013-07-27 18:34:00,62.8,53.6,-100.00,SSE,167,6.0,11.0,72,0.00,,,0.00,33.0,meteohub,2013-07-28 01:34:00,
2013-07-27 18:40:00,62.2,53.4,-100.00,SSW,207,1.0,8.0,73,0.00,,,0.00,30.0,meteohub,2013-07-28 01:40:00,
2013-07-27 18:47:00,61.7,53.8,-100.00,SSW,192,1.0,8.0,75,0.00,,,0.00,26.0,meteohub,2013-07-28 01:47:00,
2013-07-27 18:52:00,61.5,53.6,-100.00,SSW,213,4.0,8.0,75,0.00,,,0.00,26.0,meteohub,2013-07-28 01:52:00,
2013-07-27 18:57:00,61.0,53.4,-100.00,WSW,252,4.0,8.0,76,0.00,,,0.00,25.0,meteohub,2013-07-28 01:57:00,
2013-07-27 19:03:00,61.0,53.4,-100.00,WSW,246,0.0,6.0,76,0.00,,,0.00,23.0,meteohub,2013-07-28 02:03:00,
2013-07-27 19:09:00,61.0,53.4,-100.00,SW,221,1.0,6.0,76,0.00,,,0.00,23.0,meteohub,2013-07-28 02:09:00,
2013-07-27 19:16:00,60.6,53.4,-100.00,WSW,237,2.0,6.0,77,0.00,,,0.00,21.0,meteohub,2013-07-28 02:16:00,
2013-07-27 19:22:00,60.3,53.1,-100.00,SW,236,3.0,6.0,77,0.00,,,0.00,21.0,meteohub,2013-07-28 02:22:00,
2013-07-27 19:27:00,59.9,53.1,-100.00,WSW,251,1.0,6.0,78,0.00,,,0.00,19.0,meteohub,2013-07-28 02:27:00,
2013-07-27 19:32:00,59.9,53.1,-100.00,WSW,247,0.0,6.0,78,0.00,,,0.00,19.0,meteohub,2013-07-28 02:32:00,
2013-07-27 19:37:00,59.5,52.7,-100.00,WSW,249,1.0,6.0,78,0.00,,,0.00,18.0,meteohub,2013-07-28 02:37:00,
2013-07-27 19:43:00,59.0,52.9,-100.00,SW,221,2.0,6.0,80,0.00,,,0.00,16.0,meteohub,2013-07-28 02:43:00,
2013-07-27 19:49:00,58.8,52.7,-100.00,SW,231,0.0,5.0,80,0.00,,,0.00,14.0,meteohub,2013-07-28 02:49:00,
2013-07-27 19:55:00,58.5,52.7,-100.00,WSW,250,1.0,5.0,81,0.00,,,0.00,12.0,meteohub,2013-07-28 02:55:00,
2013-07-27 20:02:00,58.5,52.7,-100.00,WSW,250,1.0,5.0,81,0.00,,,0.00,12.0,meteohub,2013-07-28 03:02:00,
2013-07-27 20:07:00,58.5,53.1,-100.00,WSW,248,0.0,5.0,82,0.00,,,0.00,11.0,meteohub,2013-07-28 03:07:00,
2013-07-27 20:12:00,58.3,52.9,-100.00,SW,221,4.0,5.0,82,0.00,,,0.00,7.0,meteohub,2013-07-28 03:12:00,
2013-07-27 20:18:00,57.9,52.5,-100.00,SW,221,2.0,5.0,82,0.00,,,0.00,5.0,meteohub,2013-07-28 03:18:00,
2013-07-27 20:24:00,57.4,52.3,-100.00,SW,223,1.0,5.0,83,0.00,,,0.00,0.0,meteohub,2013-07-28 03:24:00,
2013-07-27 20:30:00,56.8,52.3,-100.00,SW,228,0.0,4.0,85,0.00,,,0.00,0.0,meteohub,2013-07-28 03:30:00,
2013-07-27 20:36:00,56.7,52.5,-100.00,SW,226,1.0,4.0,86,0.00,,,0.00,0.0,meteohub,2013-07-28 03:36:00,
2013-07-27 20:42:00,56.5,52.3,-100.00,SW,222,1.0,2.0,86,0.00,,,0.00,0.0,meteohub,2013-07-28 03:42:00,
2013-07-27 20:47:00,56.3,52.2,-100.00,SW,218,0.0,2.0,86,0.00,,,0.00,0.0,meteohub,2013-07-28 03:47:00,
2013-07-27 20:52:00,56.3,52.5,-100.00,SW,219,0.0,4.0,87,0.00,,,0.00,0.0,meteohub,2013-07-28 03:52:00,
2013-07-27 20:57:00,56.1,52.0,-100.00,SW,217,0.0,4.0,86,0.00,,,0.00,0.0,meteohub,2013-07-28 03:57:00,
2013-07-27 21:01:00,55.9,52.2,-100.00,SW,216,1.0,4.0,87,0.00,,,0.00,0.0,meteohub,2013-07-28 04:01:00,
2013-07-27 21:02:00,55.9,52.2,-100.00,SW,216,0.0,4.0,87,0.00,,,0.00,0.0,meteohub,2013-07-28 04:02:00,
2013-07-27 21:03:00,55.8,52.0,-100.00,SW,215,0.0,4.0,87,0.00,,,0.00,0.0,meteohub,2013-07-28 04:03:00,
2013-07-27 21:05:00,55.8,52.0,-100.00,SW,215,0.0,4.0,87,0.00,,,0.00,0.0,meteohub,2013-07-28 04:05:00,
2013-07-27 21:12:00,55.6,52.2,-100.00,SW,215,0.0,4.0,88,0.00,,,0.00,0.0,meteohub,2013-07-28 04:12:00,
2013-07-27 21:16:00,55.2,51.8,-100.00,SW,215,0.0,4.0,88,0.00,,,0.00,0.0,meteohub,2013-07-28 04:16:00,
2013-07-27 21:22:00,55.0,51.8,-100.00,SW,215,0.0,4.0,89,0.00,,,0.00,0.0,meteohub,2013-07-28 04:22:00,
2013-07-27 21:27:00,55.0,51.8,-100.00,SW,215,0.0,4.0,89,0.00,,,0.00,0.0,meteohub,2013-07-28 04:27:00,
2013-07-27 21:32:00,55.0,51.8,-100.00,SW,215,0.0,2.0,89,0.00,,,0.00,0.0,meteohub,2013-07-28 04:32:00,
2013-07-27 21:38:00,55.0,52.2,-100.00,SW,215,0.0,2.0,90,0.00,,,0.00,0.0,meteohub,2013-07-28 04:38:00,
2013-07-27 21:45:00,54.9,52.0,-100.00,SW,214,0.0,2.0,90,0.00,,,0.00,0.0,meteohub,2013-07-28 04:45:00,
2013-07-27 21:51:00,54.9,52.0,-100.00,SSW,212,2.0,3.0,90,0.00,,,0.00,0.0,meteohub,2013-07-28 04:51:00,
2013-07-27 21:57:00,54.9,52.0,-100.00,SW,214,1.0,3.0,90,0.00,,,0.00,0.0,meteohub,2013-07-28 04:57:00,
2013-07-27 22:03:00,54.7,51.8,-100.00,SW,219,0.0,4.0,90,0.00,,,0.00,0.0,meteohub,2013-07-28 05:03:00,
2013-07-27 22:09:00,54.9,52.0,-100.00,SW,220,0.0,4.0,90,0.00,,,0.00,0.0,meteohub,2013-07-28 05:09:00,
2013-07-27 22:15:00,54.9,52.0,-100.00,SW,221,0.0,4.0,90,0.00,,,0.00,0.0,meteohub,2013-07-28 05:15:00,
2013-07-27 22:21:00,55.0,52.2,-100.00,SW,221,0.0,5.0,90,0.00,,,0.00,0.0,meteohub,2013-07-28 05:21:00,
2013-07-27 22:27:00,54.9,52.0,-100.00,SW,221,0.0,5.0,90,0.00,,,0.00,0.0,meteohub,2013-07-28 05:27:00,
2013-07-27 22:32:00,54.9,52.0,-100.00,SW,221,2.0,4.0,90,0.00,,,0.00,0.0,meteohub,2013-07-28 05:32:00,
2013-07-27 22:37:00,54.7,51.8,-100.00,SW,222,0.0,4.0,90,0.00,,,0.00,0.0,meteohub,2013-07-28 05:37:00,
2013-07-27 22:42:00,54.9,52.0,-100.00,SW,222,0.0,5.0,90,0.00,,,0.00,0.0,meteohub,2013-07-28 05:42:00,
2013-07-27 22:48:00,54.9,52.0,-100.00,SW,221,0.0,6.0,90,0.00,,,0.00,0.0,meteohub,2013-07-28 05:48:00,
2013-07-27 22:54:00,54.9,52.0,-100.00,SW,221,2.0,6.0,90,0.00,,,0.00,0.0,meteohub,2013-07-28 05:54:00,
2013-07-27 23:00:00,54.7,51.8,-100.00,SW,221,2.0,5.0,90,0.00,,,0.00,0.0,meteohub,2013-07-28 06:00:00,
2013-07-27 23:07:00,54.9,52.0,-100.00,SW,221,1.0,5.0,90,0.00,,,0.00,0.0,meteohub,2013-07-28 06:07:00,
2013-07-27 23:12:00,54.9,52.0,-100.00,SW,221,0.0,5.0,90,0.00,,,0.00,0.0,meteohub,2013-07-28 06:12:00,
2013-07-27 23:17:00,54.9,52.0,-100.00,SW,221,0.0,5.0,90,0.00,,,0.00,0.0,meteohub,2013-07-28 06:17:00,
2013-07-27 23:22:00,54.9,52.0,-100.00,SW,221,0.0,2.0,90,0.00,,,0.00,0.0,meteohub,2013-07-28 06:22:00,
2013-07-27 23:27:00,54.9,52.0,-100.00,SW,221,0.0,2.0,90,0.00,,,0.00,0.0,meteohub,2013-07-28 06:27:00,
2013-07-27 23:32:00,54.7,51.8,-100.00,SW,221,0.0,3.0,90,0.00,,,0.00,0.0,meteohub,2013-07-28 06:32:00,
2013-07-27 23:37:00,54.7,51.8,-100.00,SW,221,0.0,3.0,90,0.00,,,0.00,0.0,meteohub,2013-07-28 06:37:00,
2013-07-27 23:42:00,54.7,51.8,-100.00,SW,221,0.0,4.0,90,0.00,,,0.00,0.0,meteohub,2013-07-28 06:42:00,
2013-07-27 23:48:00,54.7,51.8,-100.00,SW,221,0.0,4.0,90,0.00,,,0.00,0.0,meteohub,2013-07-28 06:48:00,
2013-07-27 23:54:00,54.9,52.3,-100.00,SW,221,0.0,3.0,91,0.00,,,0.00,0.0,meteohub,2013-07-28 06:54:00,